Estación de Longaví Norte

Ultimos registro cada 15 minutos 49
Estación Fecha / Hora Temperatura Humedad Lluvia Velocidad Dirección Radiación Presion
49 Longaví Norte 03-09-2026 12:00 16 68,5 0 2 216 695,6 1006,6
48 Longaví Norte 03-09-2026 11:45 15,2 69,1 0 2 216 688,1 1006,7
47 Longaví Norte 03-09-2026 11:30 14,7 70,7 0 2,3 215 666,9 1006,8
46 Longaví Norte 03-09-2026 11:15 14,1 75,1 0 1,7 195 645,6 1006,9
45 Longaví Norte 03-09-2026 11:00 13 83,8 0 1 194 619,4 1006,9
44 Longaví Norte 03-09-2026 10:45 12,8 87,2 0 0,7 220 590,6 1007,1
43 Longaví Norte 03-09-2026 10:30 11,4 93,1 0 0,7 223 565,6 1007,3
42 Longaví Norte 03-09-2026 10:15 9,5 99,9 0 0,7 198 38,1 1007,3
41 Longaví Norte 03-09-2026 10:00 8,2 100 0 0,3 233 386,9 1007,2
40 Longaví Norte 03-09-2026 09:45 7,3 100 0 0,3 220 195,6 1007,2
39 Longaví Norte 03-09-2026 09:30 6,6 100 0 0,3 268 275,6 1007,1
38 Longaví Norte 03-09-2026 09:15 6,2 100 0 0,3 268 231,9 1007
37 Longaví Norte 03-09-2026 09:00 5,7 100 0 0,7 278 208,1 1006,8
36 Longaví Norte 03-09-2026 08:45 5 100 0 0,3 265 181,9 1006,6
35 Longaví Norte 03-09-2026 08:30 4,6 100 0 0 124 209,4 1006,5
34 Longaví Norte 03-09-2026 08:15 4,2 100 0 0 105 131,9 1006,5
33 Longaví Norte 03-09-2026 08:00 3,3 100 0 0 105 121,9 1006,2
32 Longaví Norte 03-09-2026 07:45 2,3 100 0 0 105 51,9 1006,2
31 Longaví Norte 03-09-2026 07:30 2,1 100 0 0 105 29,4 1006,1
30 Longaví Norte 03-09-2026 07:15 1,9 100 0 0 105 6,9 1006,1
29 Longaví Norte 03-09-2026 07:00 2,2 100 0 0 105 1,9 1005,9
28 Longaví Norte 03-09-2026 06:45 1,5 100 0 0 105 0,6 1005,8
27 Longaví Norte 03-09-2026 06:30 1 100 0 0 105 0,6 1005,7
26 Longaví Norte 03-09-2026 06:15 1,1 100 0 0 105 0,6 1005,7
25 Longaví Norte 03-09-2026 06:00 0,8 100 0 0 105 0,6 1005,6
24 Longaví Norte 03-09-2026 05:45 1,2 100 0 0 105 0,6 1005,5
23 Longaví Norte 03-09-2026 05:30 1,5 100 0 0 105 0,6 1005,5
22 Longaví Norte 03-09-2026 05:15 1,5 100 0 0 105 0,6 1005,4
21 Longaví Norte 03-09-2026 05:00 1,9 100 0 0 105 0,6 1005,4
20 Longaví Norte 03-09-2026 04:45 2,2 100 0 0 105 0,6 1005,2
19 Longaví Norte 03-09-2026 04:30 2,6 100 0 0 105 0,6 1005,2
18 Longaví Norte 03-09-2026 04:15 3,1 100 0 0 105 0,6 1005,2
17 Longaví Norte 03-09-2026 04:00 3,1 100 0 0 105 0,6 1005,1
16 Longaví Norte 03-09-2026 03:45 2,9 100 0 0 105 0,6 1005,1
15 Longaví Norte 03-09-2026 03:30 2,7 100 0 0 105 0,6 1005,2
14 Longaví Norte 03-09-2026 03:15 2,6 100 0 0 105 0,6 1005,3
13 Longaví Norte 03-09-2026 03:00 2,6 100 0 0 105 0,6 1005,3
12 Longaví Norte 03-09-2026 02:45 3 100 0 0 105 0,6 1005,3
11 Longaví Norte 03-09-2026 02:30 3,2 100 0 0 105 0,6 1005,3
10 Longaví Norte 03-09-2026 02:15 3,5 100 0 0 105 0,6 1005,3
9 Longaví Norte 03-09-2026 02:00 3,9 100 0 0 111 0,6 1005,4
8 Longaví Norte 03-09-2026 01:45 5,4 100 0 0 199 0,6 1005,4
7 Longaví Norte 03-09-2026 01:30 5,4 100 0 0 199 0,6 1005,4
6 Longaví Norte 03-09-2026 01:15 5,5 100 0 0 199 0,6 1005,4
5 Longaví Norte 03-09-2026 01:00 5,6 100 0 0 199 0,6 1005,5
4 Longaví Norte 03-09-2026 00:45 5,9 100 0 0 199 0,6 1005,5
3 Longaví Norte 03-09-2026 00:30 6,4 99,5 0 0 199 0,6 1005,4
2 Longaví Norte 03-09-2026 00:15 6,6 99,8 0 0 199 0,6 1005,3
1 Longaví Norte 03-09-2026 00:00 7,6 99,2 0 0 199 0,6 1005,3